Home > Weather > Moreno Valley > Past weeks

Flag for U.S.A. Weather for the Past 2 Weeks in Moreno Valley, California, U.S.A.

Now
50 °F

Clear.


Feels Like: 49 °F
Forecast: 49 / 84 °F
Wind: 3 mph from Northwest

Location: Riverside / March Air Force Base

Current Time: Feb 9, 2016 at 2:39:11 AM

Latest Report: Feb 9, 2016 at 1:58 AM


Visibility: 10 mi

Pressure: 30.16 "Hg

Humidity: 36%

Dew point: 24 °F

Location of Moreno ValleyLocation

Historic Weather in Moreno Valley — Graph

°F

Moreno Valley Temperature Yesterday

Maximum temperature yesterday: 80 °F (at 1:58 PM)
Minimum temperature yesterday: 51 °F (at 1:58 AM)
Average temperature yesterday: 68 °F

High & Low Weather Summary for the Past Weeks

 TemperatureHumidityPressure
High80 °F (Feb 8, 1:58 PM)100% (Jan 25, 12:58 AM)30.37 "Hg (Jan 25, 12:58 AM)
Low28 °F (Feb 2, 5:58 AM)9% (Jan 27, 12:58 PM)29.59 "Hg (Jan 31, 2:58 PM)
Average54 °F45%30.13 "Hg
* Reported Jan 25 12:58 AM — Feb 9 12:58 AM, Moreno Valley, Weather by CustomWeather, © 2016

Note: Actual official high and low records may vary slightly from our data, if they occured in-between our weather recording intervals... More about our weather records

Advertising

Moreno Valley Weather History for the Previous 24 Hours

 ConditionsComfort  
Time TempWeatherWind HumidityBarometerVisibility
12:58 AM
Tue, Feb 9
49 °FClear.6 mph39%30.16 "Hg10 mi
11:58 PM
Mon, Feb 8
54 °FClear.6 mph29%30.16 "Hg10 mi
10:58 PM63 °FClear.6 mph22%30.17 "Hg10 mi
9:58 PM69 °FClear.12 mph15%30.17 "Hg10 mi
8:58 PM71 °FClear.9 mph13%30.15 "Hg10 mi
7:58 PM67 °FClear.10 mph15%30.14 "Hg10 mi
6:58 PM71 °FClear.12 mph12%30.14 "Hg10 mi
5:58 PM73 °FClear.12 mph12%30.14 "Hg10 mi
4:58 PM76 °FSunny.12 mph12%30.12 "Hg10 mi
3:58 PM78 °FSunny.14 mph11%30.11 "Hg10 mi
2:58 PM79 °FSunny.14 mph11%30.12 "Hg10 mi
1:58 PM80 °FSunny.14 mph10%30.13 "Hg10 mi
12:58 PM79 °FSunny.15 mph10%30.14 "Hg10 mi
11:58 AM79 °FSunny.14 mph10%30.16 "Hg10 mi
10:58 AM77 °FSunny.15 mph12%30.18 "Hg10 mi
9:58 AM74 °FSunny.16 mph13%30.19 "Hg10 mi
8:58 AM71 °FSunny.14 mph15%30.19 "Hg10 mi
7:58 AM67 °FSunny.14 mph18%30.18 "Hg10 mi
6:58 AM54 °FSunny.12 mph31%30.18 "Hg10 mi
5:58 AM55 °FClear.8 mph27%30.16 "Hg10 mi
4:58 AM63 °FClear.12 mph20%30.14 "Hg10 mi
3:58 AM58 °FClear.9 mph25%30.14 "Hg10 mi
2:58 AM62 °FClear.6 mph22%30.15 "Hg10 mi
Weather by CustomWeather, © 2016

See weather overviewHow to use our weather pages